Austin, TX

2:03 AM CDT on May 01, 2017 (GMT -0500)
Austin

Weather History for KATT - October, 2012

Change the Weather History Date:

Thursday, October 4, 2012

  Actual Average Record
Temperature  
Mean Temperature 79 °F 75 °F  
Max Temperature 90 °F 85 °F 98 °F (1929)
Min Temperature 67 °F 64 °F 47 °F (1975)
Degree Days  
Heating Degree Days 0 0  
Month to date heating degree days 0 0  
Since 1 July heating degree days 0 2  
Cooling Degree Days 14 10  
Month to date cooling degree days 35 41  
Year to date cooling degree days 3271 2885  
Growing Degree Days 28 (Base 50)    
Moisture  
Dew Point 67 °F    
Average Humidity 70    
Maximum Humidity 90    
Minimum Humidity 50    
Precipitation  
Precipitation 0.00 in 0.11 in 3.57 in (1930)
Month to date precipitation 0.00 0.42  
Year to date precipitation 31.71 25.50  
Snow  
Snow 0.00 in - - ()
Month to date snowfall 0.0  
Since 1 July snowfall 0.0  
Since 1 September snowfall 0.0  
Snow Depth 0.00 in    
Sea Level Pressure  
Sea Level Pressure 30.05 in    
Wind  
Wind Speed 7 mph (SSE)    
Max Wind Speed 14 mph    
Max Gust Speed 22 mph    
Visibility 10 miles    
Events      
T = Trace of Precipitation, MM = Missing Value Source: NWS Daily Summary

Daily Weather History Graph

Daily Weather History Graph

Search for Another Location

Airport or City:

Trip Planner

Search our weather history database for the weather conditions in past years. The results will help you decide how hot, cold, wet, or windy it might be!

Date:

Astronomy

Oct. 04, 2012 Rise Set
Actual Time 7:26 AM CDT 7:12 PM CDT
Civil Twilight 7:02 AM CDT 7:36 PM CDT
Nautical Twilight 6:34 AM CDT 8:03 PM CDT
Astronomical Twilight 6:06 AM CDT 8:31 PM CDT
Moon 10:07 PM CDT (10/4) 11:26 AM CDT (10/4)
Length of Visible Light 12h 33m
Length of Day
11h 45m
Waning Gibbous, 82% of the Moon is Illuminated
Oct 4
Waning Gibbous
Oct 8
Last Quarter
Oct 15
New
Oct 21
First Quarter
Oct 29
Full

Hourly Weather History & Observations

Time (CDT) Temp. Heat Index Dew Point Humidity Pressure Visibility Wind Dir Wind Speed Gust Speed Precip Events Conditions
12:51 AM 69.1 °F - 61.0 °F 75% 30.01 in 10.0 mi SSE 3.5 mph - N/A   Clear
1:51 AM 68.0 °F - 61.0 °F 78% 30.01 in 10.0 mi Variable 3.5 mph - N/A   Clear
2:36 AM 69.1 °F - 61.0 °F 75% 30.05 in 10.0 mi Calm Calm - N/A   Mostly Cloudy
2:51 AM 69.1 °F - 62.1 °F 78% 30.01 in 10.0 mi Variable 3.5 mph - N/A   Overcast
3:51 AM 70.0 °F - 62.1 °F 76% 30.01 in 10.0 mi SSE 4.6 mph - N/A   Mostly Cloudy
4:23 AM 69.1 °F - 62.1 °F 78% 30.05 in 10.0 mi ESE 4.6 mph - N/A   Overcast
4:51 AM 69.1 °F - 62.1 °F 78% 30.01 in 10.0 mi Variable 4.6 mph - N/A   Overcast
5:51 AM 69.1 °F - 62.1 °F 78% 30.02 in 10.0 mi ESE 4.6 mph - N/A   Overcast
6:51 AM 69.1 °F - 63.0 °F 81% 30.03 in 10.0 mi ESE 4.6 mph - N/A   Overcast
7:14 AM 69.1 °F - 64.0 °F 84% 30.06 in 10.0 mi ESE 4.6 mph - N/A   Overcast
7:51 AM 69.1 °F - 64.9 °F 87% 30.05 in 10.0 mi ESE 4.6 mph - N/A   Overcast
8:51 AM 70.0 °F - 66.0 °F 87% 30.06 in 10.0 mi SE 4.6 mph - N/A   Overcast
9:51 AM 72.0 °F - 68.0 °F 87% 30.07 in 10.0 mi Variable 6.9 mph - N/A   Overcast
10:19 AM 73.9 °F - 69.1 °F 85% 30.10 in 10.0 mi Variable 4.6 mph - N/A   Overcast
10:35 AM 75.9 °F - 70.0 °F 82% 30.10 in 10.0 mi SSE 6.9 mph - N/A   Overcast
10:51 AM 77.0 °F - 70.0 °F 79% 30.07 in 10.0 mi Variable 4.6 mph - N/A   Overcast
11:51 AM 80.1 °F 83.6 °F 71.1 °F 74% 30.07 in 10.0 mi South 8.1 mph - N/A   Mostly Cloudy
12:07 PM 82.9 °F 87.5 °F 71.1 °F 67% 30.10 in 10.0 mi South 9.2 mph 16.1 mph N/A   Mostly Cloudy
12:14 PM 82.9 °F 87.0 °F 70.0 °F 65% 30.10 in 10.0 mi SSE 11.5 mph 19.6 mph N/A   Mostly Cloudy
12:51 PM 86.0 °F 91.5 °F 71.1 °F 61% 30.05 in 10.0 mi North - - N/A   Mostly Cloudy
1:51 PM 87.1 °F 92.0 °F 70.0 °F 57% 30.04 in 10.0 mi South 8.1 mph 20.7 mph N/A   Scattered Clouds
2:51 PM 88.0 °F 92.9 °F 70.0 °F 55% 30.02 in 10.0 mi South 8.1 mph - N/A   Partly Cloudy
3:51 PM 89.1 °F 93.7 °F 69.1 °F 52% 30.01 in 10.0 mi SSE 10.4 mph 18.4 mph N/A   Partly Cloudy
4:51 PM 89.1 °F 92.9 °F 68.0 °F 50% 30.01 in 10.0 mi South 8.1 mph 19.6 mph N/A   Partly Cloudy
5:51 PM 87.1 °F 90.6 °F 68.0 °F 53% 30.00 in 10.0 mi SSE 11.5 mph 17.3 mph N/A   Partly Cloudy
6:51 PM 84.9 °F 88.2 °F 68.0 °F 57% 30.01 in 10.0 mi SSE 8.1 mph 18.4 mph N/A   Scattered Clouds
7:51 PM 82.9 °F 87.0 °F 70.0 °F 65% 30.04 in 10.0 mi SSE 9.2 mph 21.9 mph N/A   Mostly Cloudy
8:51 PM 81.0 °F 84.1 °F 69.1 °F 67% 30.06 in 10.0 mi SSE 6.9 mph 18.4 mph N/A   Overcast
9:51 PM 79.0 °F - 69.1 °F 72% 30.08 in 10.0 mi South 4.6 mph - N/A   Overcast
10:51 PM 77.0 °F - 69.1 °F 76% 30.09 in 10.0 mi SSE 8.1 mph - N/A   Clear
11:51 PM 75.0 °F - 69.1 °F 82% 30.08 in 10.0 mi South 8.1 mph - N/A   Clear